Date String (YYYY-MM-DD hh:mm:ss) UTC,Instrument flags,Ambient pressure (hPa),Sample flow (lpm),Bypass flow (lpm),Sample temperature (°C),Ambient temperature (°C),ASC tube jacket temperature (°C),LED temperature (°C),Box temperature (°C),Sample RH (%),Span deviation,Mass concentration (μg/m³),Mass concentration (μg/m³),Mass concentration (μg/m³)
DateTimeUTC,F1_M11,P_M11,Q1_M11,Q2_M11,T1_M11,T2_M11,T3_M11,T4_M11,T5_M11,U1_M11,ZSPAN_M11,X0_M11,X2_M11,X1_M11
2022-10-22 19:00:00,,0811.4,4.99,0.00,29.6,26.4,00.0,38.3,31.3,07.2,0000.0,0003.67,0001.87,0001.55
2022-10-22 19:01:00,,0811.4,5.01,0.00,29.5,26.7,00.0,38.3,31.1,07.2,0000.0,0003.81,0001.91,0001.55
2022-10-22 19:02:00,,0811.4,5.00,0.00,29.5,27.1,00.0,38.3,31.1,07.3,0000.0,0003.64,0001.92,0001.54
2022-10-22 19:03:00,,0811.3,5.00,0.00,29.4,27.4,00.0,38.3,31.2,07.4,0000.0,0003.54,0001.90,0001.54
2022-10-22 19:04:00,,0811.3,5.00,0.00,29.4,27.6,00.0,38.3,31.2,07.3,0000.0,0003.70,0001.88,0001.54
2022-10-22 19:05:00,,0811.2,5.00,0.00,29.5,27.8,00.0,38.3,31.3,07.2,0000.0,0003.79,0001.88,0001.54
2022-10-22 19:06:00,,0811.2,5.01,0.00,29.5,28.0,00.0,38.3,31.3,07.3,0000.0,0003.80,0001.88,0001.54
2022-10-22 19:07:00,,0811.1,4.98,0.00,29.5,28.2,00.0,38.3,31.4,07.2,0000.0,0004.20,0001.90,0001.55
2022-10-22 19:08:00,,0811.2,5.01,0.00,29.5,28.3,00.0,38.3,31.4,07.2,0000.0,0006.18,0001.93,0001.54
2022-10-22 19:09:00,,0811.2,5.01,0.00,29.6,28.4,00.0,38.3,31.5,07.2,0000.0,0006.22,0001.95,0001.54
2022-10-22 19:10:00,,0811.1,4.98,0.00,29.6,28.2,00.0,38.4,31.5,07.2,0000.0,0006.35,0001.95,0001.54
2022-10-22 19:11:00,,0811.2,5.00,0.00,29.6,26.7,00.0,38.3,31.5,07.1,0000.0,0007.22,0001.98,0001.54
2022-10-22 19:12:00,,0811.1,5.01,0.00,29.6,25.9,00.0,38.3,31.4,07.1,0000.0,0008.08,0001.96,0001.53
2022-10-22 19:13:00,,0811.0,5.00,0.00,29.6,26.2,00.0,38.2,31.4,07.3,0000.0,0007.72,0001.95,0001.52
2022-10-22 19:14:00,,0811.1,5.00,0.00,29.5,26.5,00.0,38.2,31.2,07.3,0000.0,0007.70,0001.94,0001.51
2022-10-22 19:15:00,,0811.0,5.00,0.00,29.4,26.8,00.0,38.2,31.1,07.2,0000.0,0007.49,0001.91,0001.51
2022-10-22 19:16:00,,0811.0,5.00,0.00,29.4,27.2,00.0,38.2,31.2,07.4,0000.0,0007.41,0001.87,0001.50
2022-10-22 19:17:00,,0811.0,5.01,0.00,29.4,27.5,00.0,38.2,31.2,07.4,0000.0,0007.43,0001.86,0001.49
2022-10-22 19:18:00,,0811.0,4.98,0.00,29.4,27.7,00.0,38.2,31.2,07.3,0000.0,0007.42,0001.85,0001.48
2022-10-22 19:19:00,,0810.9,5.00,0.00,29.4,27.9,00.0,38.2,31.3,07.3,0000.0,0005.23,0001.79,0001.47
2022-10-22 19:20:00,,0811.0,5.00,0.00,29.5,28.1,00.0,38.2,31.3,07.3,0000.0,0005.83,0001.84,0001.47
2022-10-22 19:21:00,,0810.9,4.99,0.00,29.5,28.2,00.0,38.3,31.4,07.6,0000.0,0005.84,0001.82,0001.46
2022-10-22 19:22:00,,0810.9,5.00,0.00,29.5,28.4,00.0,38.3,31.5,07.6,0000.0,0005.30,0001.80,0001.47
2022-10-22 19:23:00,,0810.9,5.00,0.00,29.6,28.4,00.0,38.3,31.5,07.5,0000.0,0004.28,0001.79,0001.48
2022-10-22 19:24:00,,0810.8,4.99,0.00,29.6,27.3,00.0,38.3,31.4,07.5,0000.0,0004.37,0001.80,0001.48
2022-10-22 19:25:00,,0810.8,5.01,0.00,29.5,26.1,00.0,38.2,31.3,07.5,0000.0,0005.50,0001.83,0001.48
2022-10-22 19:26:00,,0810.7,5.00,0.00,29.5,26.1,00.0,38.2,31.3,07.5,0000.0,0005.99,0001.89,0001.48
2022-10-22 19:27:00,,0810.7,5.01,0.00,29.4,26.4,00.0,38.2,31.2,07.3,0000.0,0006.11,0001.95,0001.48
2022-10-22 19:28:00,,0810.6,4.99,0.00,29.4,26.7,00.0,38.1,31.1,07.4,0000.0,0006.46,0001.96,0001.48
2022-10-22 19:29:00,,0810.6,5.01,0.00,29.4,27.1,00.0,38.1,31.1,07.4,0000.0,0006.58,0001.97,0001.48
2022-10-22 19:30:00,,0810.6,5.00,0.00,29.4,27.4,00.0,38.1,31.1,07.4,0000.0,0006.55,0001.97,0001.48
2022-10-22 19:31:00,,0810.6,5.01,0.00,29.4,27.6,00.0,38.2,31.2,07.3,0000.0,0006.11,0001.96,0001.47
2022-10-22 19:32:00,,0810.5,5.00,0.00,29.4,27.9,00.0,38.2,31.3,07.5,0000.0,0005.89,0001.94,0001.47
2022-10-22 19:33:00,,0810.5,4.99,0.00,29.5,28.1,00.0,38.2,31.4,07.6,0000.0,0005.70,0001.93,0001.46
2022-10-22 19:34:00,,0810.4,5.01,0.00,29.5,28.3,00.0,38.2,31.4,07.5,0000.0,0004.81,0001.94,0001.45
2022-10-22 19:35:00,,0810.4,4.99,0.00,29.5,28.4,00.0,38.2,31.5,07.6,0000.0,0004.74,0001.93,0001.44
2022-10-22 19:36:00,,0810.4,5.02,0.00,29.6,28.4,00.0,38.3,31.5,07.6,0000.0,0004.07,0001.97,0001.43
2022-10-22 19:37:00,,0810.3,4.98,0.00,29.6,27.1,00.0,38.2,31.4,07.6,0000.0,0003.66,0001.95,0001.42
2022-10-22 19:38:00,,0810.3,5.01,0.00,29.5,26.0,00.0,38.2,31.3,07.4,0000.0,0003.56,0001.89,0001.42
2022-10-22 19:39:00,,0810.4,5.00,0.00,29.5,26.1,00.0,38.1,31.3,07.4,0000.0,0003.33,0001.89,0001.41
2022-10-22 19:40:00,,0810.4,5.00,0.00,29.4,26.4,00.0,38.1,31.1,07.3,0000.0,0003.03,0001.88,0001.41
2022-10-22 19:41:00,,0810.3,4.99,0.00,29.4,26.8,00.0,38.1,31.0,07.4,0000.0,0003.08,0001.90,0001.40
2022-10-22 19:42:00,,0810.2,5.02,0.00,29.4,27.1,00.0,38.1,31.1,07.5,0000.0,0003.63,0001.87,0001.39
2022-10-22 19:43:00,,0810.2,4.98,0.00,29.4,27.4,00.0,38.1,31.1,07.5,0000.0,0004.07,0001.88,0001.39
2022-10-22 19:44:00,,0810.2,5.01,0.00,29.4,27.7,00.0,38.1,31.2,07.5,0000.0,0004.03,0001.88,0001.40
2022-10-22 19:45:00,,0810.2,5.01,0.00,29.4,27.9,00.0,38.1,31.2,07.5,0000.0,0003.88,0001.84,0001.39
2022-10-22 19:46:00,,0810.2,4.99,0.00,29.5,28.1,00.0,38.2,31.3,07.3,0000.0,0003.82,0001.83,0001.39
2022-10-22 19:47:00,,0810.2,5.01,0.00,29.5,28.2,00.0,38.2,31.4,07.3,0000.0,0003.65,0001.79,0001.40
2022-10-22 19:48:00,,0810.2,5.00,0.00,29.5,28.4,00.0,38.2,31.4,07.3,0000.0,0003.66,0001.78,0001.40
2022-10-22 19:49:00,,0810.1,5.00,0.00,29.6,28.1,00.0,38.2,31.4,07.5,0000.0,0003.77,0001.80,0001.39
2022-10-22 19:50:00,,0810.0,4.98,0.00,29.6,26.8,00.0,38.2,31.4,07.5,0000.0,0003.83,0001.84,0001.40
2022-10-22 19:51:00,,0810.0,5.02,0.00,29.5,26.1,00.0,38.1,31.3,07.3,0000.0,0003.92,0001.86,0001.41
2022-10-22 19:52:00,,0809.9,5.00,0.00,29.5,26.3,00.0,38.1,31.2,07.4,0000.0,0003.92,0001.85,0001.41
2022-10-22 19:53:00,,0809.9,5.00,0.00,29.4,26.6,00.0,38.1,31.0,07.4,0000.0,0003.51,0001.86,0001.42
2022-10-22 19:54:00,,0810.0,4.99,0.00,29.4,26.9,00.0,38.1,31.0,07.5,0000.0,0003.79,0001.91,0001.42
2022-10-22 19:55:00,,0810.0,5.00,0.00,29.3,27.2,00.0,38.1,31.0,07.6,0000.0,0004.02,0001.98,0001.42
2022-10-22 19:56:00,,0809.9,5.00,0.00,29.4,27.5,00.0,38.1,31.2,07.5,0000.0,0004.17,0002.05,0001.42
2022-10-22 19:57:00,,0809.9,5.00,0.00,29.4,27.8,00.0,38.1,31.3,07.5,0000.0,0004.90,0002.06,0001.42
2022-10-22 19:58:00,,0810.0,4.98,0.00,29.4,28.0,00.0,38.1,31.3,07.5,0000.0,0005.42,0002.07,0001.42
2022-10-22 19:59:00,,0810.0,5.01,0.00,29.5,28.2,00.0,38.2,31.4,07.5,0000.0,0005.66,0002.05,0001.42
